This demonstration page uses our WeatherBlox Daily Observations layout. Learn more.

Left ArrowRight Arrow

41.55636, -103.73856

Hourly Observations for June 15, 2021

Temp ( °F °C ) Dew Point ( °F °C ) Humidity (%) Winds ( mph kmh ) Pressure ( in mb ) Visibility ( mi km ) Precip ( " mm )
3:58 am 03:58 Clear 72 22.3 60 15.4 65 65 S 23 37 29.92 1013 10 16 N/A
4:58 am 04:58 Clear 71 21.8 60 15.3 67 67 S 22 35 29.91 1013 10 16 N/A
5:58 am 05:58 Sunny 69 20.5 59 15.2 72 72 N 6 9 29.97 1015 10 16 N/A
6:58 am 06:58 Sunny 71 21.5 60 15.5 69 69 SSE 13 20 30.01 1016 10 16 N/A
7:58 am 07:58 Sunny 76 24.2 60 15.4 58 58 S 12 19 30.01 1016 10 16 N/A
8:58 am 08:58 Sunny 79 26.3 60 15.6 52 52 SSE 10 17 30.01 1016 10 16 N/A
9:58 am 09:58 Sunny 84 29 59 15.1 43 43 SE 15 24 30.00 1016 10 16 N/A
10:58 am 10:58 Sunny 89 31.6 56 13.4 33 33 SSE 23 37 29.98 1015 10 16 N/A
11:58 am 11:58 Sunny 92 33.2 55 12.5 28 28 SSE 26 43 29.97 1015 10 16 N/A
12:58 pm 12:58 Sunny 93 34.1 55 12.7 27 27 SSE 29 46 29.94 1014 10 16 N/A
1:58 pm 13:58 Sunny 96 35.7 49 9.6 20 20 S 22 35 29.92 1013 10 16 N/A
2:58 pm 14:58 Sunny 99 37 49 9.2 18 18 S 25 41 29.91 1013 10 16 N/A
3:58 pm 15:58 Sunny 99 37.3 44 6.7 15 15 S 14 22 29.89 1012 10 16 N/A
4:58 pm 16:58 Sunny 99 37 40 4.7 13 13 SSE 10 17 29.90 1013 10 16 N/A
5:58 pm 17:58 Sunny 98 36.5 42 5.7 15 15 S 15 24 29.88 1012 10 16 N/A
6:58 pm 18:58 Sunny 94 34.4 49 9.2 21 21 S 12 19 29.89 1012 10 16 N/A
7:58 pm 19:58 Sunny 88 31.3 51 10.6 28 28 SSE 15 24 29.89 1012 10 16 N/A
8:58 pm 20:58 Clear 83 28.6 50 10.2 32 32 S 15 24 29.89 1012 10 16 N/A
9:58 pm 21:58 Clear 81 27.3 52 11.3 37 37 S 17 28 29.91 1013 10 16 N/A
10:58 pm 22:58 Clear 78 25.3 53 11.4 42 42 S 17 28 29.91 1013 10 16 N/A
11:58 pm 23:58 Clear 81 27.3 50 10.1 34 34 SSW 23 37 29.88 1012 10 16 N/A

Powered by AerisWeather